EW1181 Weather Reports


Display with metric or nautical units.
time (UTC)temp
F
wind
direction
speed
MPH
gust
MPH
rain 1hr
in
rain 24hr
in
rain mn
in
humidity
%
barometer
mb
20260502221016 52 45 3.0 7.0 0.02 0.09 0.09 100 1012.1
20260502220016 52 45 3.0 7.0 0.02 0.09 0.09 100 1012.1
20260502215019 52 0.0 2.0 0.02 0.09 0.09 100 1012.1
20260502214016 52 68 1.0 4.0 0.02 0.08 0.08 100 1012.1
20260502213016 52 45 2.0 6.0 0.02 0.08 0.08 100 1012.1
20260502212016 52 45 2.0 6.0 0.00 0.06 0.06 100 1012.2
20260502211016 52 45 2.0 6.0 0.00 0.06 0.06 100 1012.2
20260502210016 52 23 2.0 5.0 0.00 0.06 0.06 100 1012.2
20260502205038 52 45 3.0 6.0 0.00 0.06 0.06 100 1012.2
20260502204037 52 23 1.0 5.0 0.00 0.06 0.06 100 1012.2
20260502203016 52 45 2.0 6.0 0.00 0.06 0.06 100 1012.3
20260502202016 52 0 1.0 4.0 0.00 0.06 0.06 100 1012.3
20260502201018 52 0 2.0 5.0 0.00 0.06 0.06 99 1012.2
20260502200017 52 45 3.0 6.0 0.00 0.06 0.06 99 1012.1
20260502195016 52 45 2.0 6.0 0.00 0.06 0.06 99 1012.1
20260502194017 52 23 2.0 5.0 0.00 0.06 0.06 99 1012.1
20260502193016 52 68 2.0 5.0 0.00 0.06 0.06 99 1012.1
20260502192016 52 0 2.0 7.0 0.00 0.06 0.06 99 1012.2
20260502191016 52 0 1.0 4.0 0.00 0.06 0.06 99 1012.2
20260502190016 52 0 1.0 4.0 0.00 0.06 0.06 99 1012.3
20260502185016 52 45 1.0 4.0 0.00 0.06 0.06 99 1012.3
20260502184036 52 0 1.0 5.0 0.00 0.06 0.06 99 1012.3
20260502183036 52 338 1.0 4.0 0.00 0.06 0.06 98 1012.3
20260502182016 52 45 1.0 5.0 0.00 0.06 0.06 99 1012.3
20260502181016 52 0 2.0 6.0 0.00 0.06 0.06 99 1012.4
20260502164015 52 68 3.0 8.0 0.01 0.06 0.06 97 1012.7
20260502163015 52 45 3.0 9.0 0.00 0.06 0.06 96 1012.7
20260502162015 53 23 1.0 5.0 0.00 0.06 0.06 96 1012.8
20260502161037 53 23 4.0 10.0 0.00 0.06 0.06 96 1012.8
20260502152015 53 45 4.0 9.0 0.00 0.06 0.06 94 1013.3
20260502151015 53 45 5.0 9.0 0.01 0.06 0.06 94 1013.4
20260502123017 54 68 6.0 15.0 0.00 0.00 0.00 94 1014.9
20260502122017 54 45 8.0 18.0 0.00 0.00 0.00 94 1015.0
20260502121018 54 68 9.0 17.0 0.00 0.00 0.00 93 1015.1
20260502115017 54 68 8.0 16.0 0.00 0.00 0.00 91 1015.3
20260502114018 55 68 6.0 15.0 0.00 0.00 0.00 91 1015.3
20260502113019 55 68 7.0 16.0 0.00 0.00 0.00 90 1015.3
20260502112059 55 68 6.0 13.0 0.00 0.00 0.00 92 1015.3
20260502111017 54 68 7.0 16.0 0.00 0.00 0.00 93 1015.4
20260502110017 55 45 6.0 16.0 0.00 0.00 0.00 94 1015.5
20260502105017 55 90 7.0 16.0 0.00 0.00 0.00 93 1015.5
20260502104017 54 68 8.0 18.0 0.00 0.00 0.00 94 1015.4
20260502103017 54 68 8.0 17.0 0.00 0.00 0.00 94 1015.5
20260502102017 54 68 8.0 19.0 0.00 0.00 0.00 93 1015.4
20260502101017 54 68 8.0 17.0 0.00 0.00 0.00 93 1015.4
20260502091020 53 68 9.0 16.0 0.00 0.00 0.00 95 1015.9
20260502071057 53 45 6.0 14.0 0.00 0.00 0.00 96 1016.1
20260502070017 52 45 6.0 13.0 0.00 0.00 0.00 96 1016.2
20260502065017 52 68 5.0 11.0 0.00 0.00 0.00 96 1016.2
20260502064016 52 68 6.0 12.0 0.00 0.00 0.00 96 1016.2
20260502063038 52 68 7.0 14.0 0.00 0.00 0.00 97 1016.2
20260502062017 52 68 4.0 10.0 0.00 0.00 0.00 97 1016.2